Weather reports worldwide

Advertisment
Oviedo, Spain (8015): temperature & dewpoint: 16.05.2019 17:00:00 - 22.05.2019 17:00:00 (CEST)Oviedo, Spain (8015): wind speed: 16.05.2019 17:00:00 - 22.05.2019 17:00:00 (CEST)Oviedo, Spain (8015): wind direction: 16.05.2019 17:00:00 - 22.05.2019 17:00:00 (CEST)Oviedo, Spain (8015): reduced air pressure: 16.05.2019 17:00:00 - 22.05.2019 17:00:00 (CEST)Oviedo, Spain (8015): visibility: 16.05.2019 17:00:00 - 22.05.2019 17:00:00 (CEST)Oviedo, Spain (8015): precipitation: 16.05.2019 17:00:00 - 22.05.2019 17:00:00 (CEST)
Date & Time tt [°C] td [°C] ff [km/h] ff [kn] dd ppp [hPa] vv [km] rr [mm]
22.05.2019 17:00:00 22,3 11,1 8 4 ENE 1016,4 20 -
22.05.2019 16:00:00 22,1 12,4 11 6 N 1016,4 20 0,0
22.05.2019 15:00:00 23,4 11,4 9 5 ENE 1016,3 20 0,0
22.05.2019 14:00:00 21,9 11,9 4 2 ENE 1016,7 20 -
22.05.2019 13:00:00 19,5 12,0 5 3 NE 1017,4 19 0,0
22.05.2019 12:00:00 17,1 11,4 5 3 NNE 1017,9 13 0,0
22.05.2019 11:00:00 15,1 12,4 4 2 WSW 1018,1 5 -
22.05.2019 10:00:00 12,5 11,1 4 2 SE 1018,5 6 0,0
22.05.2019 09:00:00 11,2 10,4 2 1 SSW 1018,8 2,6 0,0
22.05.2019 08:00:00 11,2 10,7 4 2 SSE 1018,8 0,5 -
22.05.2019 07:00:00 10,9 10,4 4 2 S 1018,9 2,8 0,0
22.05.2019 06:00:00 11,1 10,6 4 2 SE 1018,9 2,4 0,0
22.05.2019 05:00:00 11,3 10,7 4 2 SSE 1019,2 4,4 -
22.05.2019 04:00:00 11,0 10,5 0 0 N 1019,7 3,3 0,0
22.05.2019 03:00:00 11,1 10,6 2 1 NNW 1019,8 3,7 0,0
22.05.2019 02:00:00 10,9 10,1 2 1 NNW 1019,9 3,1 -
22.05.2019 01:00:00 11,4 10,3 2 1 ENE 1019,8 9 0,0
22.05.2019 00:00:00 12,1 10,5 4 2 E 1020,0 14 0,0
21.05.2019 23:00:00 12,5 10,9 2 1 NNW 1019,9 15 -
21.05.2019 22:00:00 14,0 11,0 4 2 E 1019,1 19 0,0
21.05.2019 21:00:00 15,3 11,3 8 4 NE 1018,6 0,3 0,0
21.05.2019 20:00:00 16,8 11,3 5 3 NE 1018,0 20 -
21.05.2019 19:00:00 16,8 11,5 8 4 ENE 1017,9 20 0,0
21.05.2019 18:00:00 18,4 11,0 8 4 E 1017,6 20 0,0
21.05.2019 17:00:00 17,8 10,4 11 6 NE 1017,8 20 -
21.05.2019 16:00:00 19,0 11,8 11 6 ENE 1017,6 20 0,0
21.05.2019 15:00:00 18,0 11,1 8 4 ENE 1017,6 20 0,0
21.05.2019 14:00:00 18,0 10,6 11 6 N 1017,8 20 -
21.05.2019 13:00:00 18,0 10,8 8 4 E 1017,8 20 0,0
21.05.2019 12:00:00 16,8 10,2 8 4 E 1017,9 20 0,0
21.05.2019 11:00:00 14,2 10,0 8 4 NE 1018,3 15 -
21.05.2019 10:00:00 11,1 9,7 4 2 NW 1018,4 4,2 0,0
21.05.2019 09:00:00 10,5 9,3 8 4 SE 1018,1 7 0,0
21.05.2019 08:00:00 8,7 8,4 5 3 S 1018,3 5 -
21.05.2019 07:00:00 8,5 8,2 5 3 SSE 1017,9 2,2 0,0
21.05.2019 06:00:00 8,7 8,2 4 2 SSW 1017,7 3,3 0,0
21.05.2019 05:00:00 9,3 8,7 4 2 W 1017,2 5 -
21.05.2019 04:00:00 9,4 8,8 4 2 S 1017,1 7 0,0
21.05.2019 03:00:00 9,6 8,7 2 1 S 1017,2 7 0,0
21.05.2019 02:00:00 10,0 9,1 4 2 WNW 1017,4 10 -
21.05.2019 01:00:00 10,6 9,2 5 3 W 1017,5 15 0,0
21.05.2019 00:00:00 11,2 9,3 8 4 E 1017,3 17 0,0
20.05.2019 23:00:00 12,1 9,5 5 3 E 1017,1 20 -
20.05.2019 22:00:00 12,5 9,3 5 3 ENE 1016,4 19 0,0
20.05.2019 21:00:00 13,9 9,3 5 3 ENE 1015,7 0,4 0,0
20.05.2019 20:00:00 15,0 9,4 5 3 E 1015,4 20 -
20.05.2019 19:00:00 15,0 9,1 5 3 E 1015,5 20 0,0
20.05.2019 18:00:00 14,1 8,1 9 5 NE 1015,5 20 0,0
20.05.2019 17:00:00 13,9 7,4 11 6 NE 1015,6 20 -
20.05.2019 16:00:00 14,6 8,3 11 6 ENE 1015,5 20 0,0
20.05.2019 15:00:00 14,4 8,8 9 5 NE 1015,5 19 0,0
20.05.2019 14:00:00 14,6 7,6 9 5 ENE 1015,6 20 -
20.05.2019 13:00:00 14,8 7,6 5 3 NE 1015,7 20 0,0
20.05.2019 12:00:00 14,2 6,8 8 4 ENE 1015,9 20 0,0
20.05.2019 11:00:00 11,4 8,1 4 2 WNW 1016,5 18 -
20.05.2019 10:00:00 9,7 7,8 2 1 WNW 1016,8 17 0,0
20.05.2019 09:00:00 7,5 7,4 2 1 S 1016,8 0,4 0,0
20.05.2019 08:00:00 5,9 5,8 5 3 S 1016,6 0,1 -
20.05.2019 07:00:00 5,9 5,6 8 4 S 1016,0 0,1 0,0
20.05.2019 06:00:00 6,7 6,4 2 1 SSW 1015,9 0,3 0,0
20.05.2019 05:00:00 7,2 6,8 5 3 S 1016,3 7 -
20.05.2019 04:00:00 7,5 7,1 5 3 S 1016,6 10 0,0
20.05.2019 03:00:00 7,7 6,9 4 2 S 1017,0 8 0,0
20.05.2019 02:00:00 8,2 7,1 4 2 S 1017,4 16 -
20.05.2019 01:00:00 8,8 7,6 5 3 S 1017,5 16 0,0
20.05.2019 00:00:00 9,4 7,7 4 2 S 1017,7 19 0,0
19.05.2019 23:00:00 9,9 7,5 4 2 S 1017,5 20 -
19.05.2019 22:00:00 11,0 7,3 5 3 N 1016,7 20 0,0
19.05.2019 21:00:00 12,0 6,9 5 3 NNW 1016,3 20 0,0
19.05.2019 20:00:00 13,2 6,8 9 5 N 1016,1 20 -
19.05.2019 19:00:00 12,9 7,3 9 5 N 1016,0 20 0,0
19.05.2019 18:00:00 13,2 7,2 8 4 N 1016,1 20 0,0
19.05.2019 17:00:00 12,9 6,2 16 9 N 1016,1 20 -
19.05.2019 16:00:00 13,8 6,4 9 5 NW 1016,2 20 0,0
19.05.2019 15:00:00 14,2 6,0 8 4 NNW 1016,1 20 0,0
19.05.2019 14:00:00 13,6 5,2 8 4 NW 1016,2 20 -
19.05.2019 13:00:00 13,0 5,2 9 5 NW 1016,3 20 0,0
19.05.2019 12:00:00 12,4 5,8 9 5 NNW 1016,2 20 0,0
19.05.2019 11:00:00 11,8 5,6 11 6 NW 1016,1 20 -
19.05.2019 10:00:00 11,0 7,1 2 1 NNW 1015,9 20 0,0
19.05.2019 09:00:00 9,4 8,5 5 3 S 1015,7 12 0,0
19.05.2019 08:00:00 7,3 6,9 4 2 SSW 1016,0 20 -
19.05.2019 07:00:00 7,3 6,2 4 2 WNW 1015,8 20 0,0
19.05.2019 06:00:00 7,8 6,7 13 7 W 1015,7 20 0,0
19.05.2019 05:00:00 8,3 7,2 4 2 NW 1015,8 20 -
19.05.2019 04:00:00 8,4 7,6 8 4 W 1015,8 17 0,2
19.05.2019 03:00:00 8,4 7,6 8 4 W 1016,0 20 0,0
19.05.2019 02:00:00 8,4 7,8 5 3 WNW 1016,2 19 -
19.05.2019 01:00:00 8,6 8,2 5 3 NW 1016,2 20 0,2
19.05.2019 00:00:00 8,7 8,2 8 4 WNW 1016,4 18 0,0
18.05.2019 23:00:00 8,7 8,4 5 3 W 1016,5 5 -
18.05.2019 22:00:00 8,8 8,5 9 5 W 1016,1 14 0,2
18.05.2019 21:00:00 9,4 8,2 15 8 WNW 1015,8 6 0,2
18.05.2019 20:00:00 11,5 6,8 15 8 WNW 1014,8 20 -
18.05.2019 19:00:00 12,1 7,0 15 8 WNW 1014,5 20 0,0
18.05.2019 18:00:00 11,1 7,8 15 8 NW 1014,3 20 0,0
18.05.2019 17:00:00 11,6 8,4 11 6 WNW 1014,1 20 -
18.05.2019 16:00:00 11,5 7,8 21 11 W 1014,1 20 0,0
18.05.2019 15:00:00 10,3 9,4 9 5 WNW 1014,3 20 0,8
18.05.2019 14:00:00 9,3 8,2 13 7 W 1014,3 10 -
18.05.2019 13:00:00 9,0 7,6 13 7 WNW 1014,3 11 0,8
18.05.2019 12:00:00 10,9 5,8 16 9 WNW 1013,3 19 0,0
18.05.2019 11:00:00 10,2 6,0 21 11 W 1013,3 20 -
18.05.2019 10:00:00 9,1 6,2 21 11 W 1013,2 20 0,0
18.05.2019 09:00:00 8,3 6,6 13 7 W 1013,0 20 0,2
18.05.2019 08:00:00 7,6 6,5 9 5 NW 1013,1 10 -
18.05.2019 07:00:00 7,4 5,9 13 7 W 1013,0 18 0,0
18.05.2019 06:00:00 7,0 6,1 11 6 WNW 1012,9 19 0,2
18.05.2019 05:00:00 7,2 6,1 8 4 NW 1013,3 15 -
18.05.2019 04:00:00 7,1 6,2 8 4 WSW 1013,6 20 0,4
18.05.2019 03:00:00 7,0 5,9 9 5 W 1014,4 8 0,6
18.05.2019 02:00:00 7,2 6,1 9 5 W 1014,6 20 -
18.05.2019 01:00:00 7,0 6,1 5 3 W 1015,1 20 0,8
18.05.2019 00:00:00 8,1 6,7 9 5 NNW 1015,2 13 0,2
17.05.2019 23:00:00 8,1 6,7 9 5 W 1015,1 15 -
17.05.2019 22:00:00 8,6 6,9 9 5 WNW 1015,0 20 0,0
17.05.2019 21:00:00 8,5 7,7 9 5 NW 1015,0 14 0,2
17.05.2019 20:00:00 8,1 7,5 13 7 W 1015,0 20 -
17.05.2019 19:00:00 9,1 8,3 9 5 WNW 1014,8 12 0,8
17.05.2019 18:00:00 9,6 8,2 16 9 W 1014,5 16 0,6
17.05.2019 17:00:00 11,6 8,8 9 5 WNW 1013,9 20 -
17.05.2019 16:00:00 10,2 9,3 8 4 NW 1014,7 20 0,2
17.05.2019 15:00:00 9,3 8,4 18 10 WNW 1014,7 9 1,0
17.05.2019 14:00:00 9,3 8,5 11 6 W 1014,6 5 -
17.05.2019 13:00:00 10,0 8,9 15 8 W 1014,1 11 2,0
17.05.2019 12:00:00 9,9 9,3 5 3 WNW 1014,0 17 0,4
17.05.2019 11:00:00 9,1 8,8 4 2 NW 1013,8 15 -
17.05.2019 10:00:00 9,6 8,4 9 5 WNW 1013,4 20 0,0
17.05.2019 09:00:00 9,4 8,8 5 3 WNW 1013,0 18 0,0
17.05.2019 08:00:00 8,9 8,6 9 5 W 1012,7 15 -
17.05.2019 07:00:00 - - - - - - - -
17.05.2019 06:00:00 - - - - - - - -
17.05.2019 05:00:00 - - - - - - - -
17.05.2019 04:00:00 - - - - - - - -
17.05.2019 03:00:00 - - - - - - - -
17.05.2019 02:00:00 - - - - - - - -
17.05.2019 01:00:00 - - - - - - - -
17.05.2019 00:00:00 - - - - - - - -
16.05.2019 23:00:00 10,4 10,1 8 4 WNW 1010,7 5 -
16.05.2019 22:00:00 - - - - - - - -
16.05.2019 21:00:00 - - - - - - - -
16.05.2019 20:00:00 11,1 9,2 5 3 NW 1010,6 20 -
16.05.2019 19:00:00 - - - - - - - -
16.05.2019 18:00:00 - - - - - - - -
16.05.2019 17:00:00 13,5 11,2 9 5 N 1010,3 15 -

tt = temperature
td = dewpoint
ff = wind speed
dd = wind direction
ppp = reduced air pressure
vv = visibility
rr = precipitation

Next stations